Terminal Aerodrome Forecast
Issued by NWS

Home | Current Version | Previous Version | Text Only | Print | Product List | Glossary On
Versions: 1 2 3 4 5 6 7 8 9 10 11 12 13 14 15 16 17 18 19 20 21 22 23 24 25 26 27 28 29 30 31
000
FTUS44 KOHX 030500
TAFCKV
TAF
KCKV 030529Z 0306/0406 VRB05KT 6SM BR BKN025 OVC035
     FM031000 00000KT 2SM BR SCT015
     FM031400 35003KT P6SM BKN020
     FM031600 01005KT P6SM BKN050
     FM031900 03005KT P6SM SKC=

USA.gov is the U.S. government's official web portal to all federal, state and local government web resources and services.